Weather History for Nashville, TN

Change the Weather History Date:

Sunday, September 16, 2012

  Actual Average Record
Temperature  
Mean Temperature 76 °F 72 °F  
Max Temperature 84 °F 82 °F 98 °F (1927)
Min Temperature 67 °F 61 °F 43 °F (1961)
Degree Days  
Heating Degree Days 0 1  
Month to date heating degree days 0 1  
Since 1 July heating degree days 0 1  
Cooling Degree Days 11 7  
Month to date cooling degree days 165 150  
Year to date cooling degree days 1911 1524  
Growing Degree Days 25 (Base 50)    
Moisture  
Dew Point 63 °F    
Average Humidity 68    
Maximum Humidity 84    
Minimum Humidity 51    
Precipitation  
Precipitation 0.00 in 0.12 in 2.69 in (2009)
Month to date precipitation 3.51 1.76  
Year to date precipitation 33.77 34.01  
Snow  
Snow 0.00 in 0.00 in - ()
Month to date snowfall 0.0 0.0  
Since 1 July snowfall 0.0 0.0  
Since 1 September snowfall 0.0 0.0  
Snow Depth 0.00 in    
Sea Level Pressure  
Sea Level Pressure 30.06 in    
Wind  
Wind Speed 4 mph (NE)    
Max Wind Speed 12 mph    
Max Gust Speed 18 mph    
Visibility 10 miles    
Events      
T = Trace of Precipitation, MM = Missing Value Source: NWS Daily Summary

Daily Weather History Graph

Daily Weather History Graph

Search for Another Location

Airport:

Trip Planner

Search our weather history database for the weather conditions in past years. The results will help you decide how hot, cold, wet, or windy it might be!

Date:

Astronomy

Sep. 16, 2012 Rise Set
Actual Time 6:30 AM CDT 6:51 PM CDT
Civil Twilight 6:04 AM CDT 7:17 PM CDT
Nautical Twilight 5:34 AM CDT 7:47 PM CDT
Astronomical Twilight 5:03 AM CDT 8:18 PM CDT
Moon 7:06 AM CDT (9/16) 7:00 PM CDT (9/16)
Length of Visible Light 13h 12m
Length of Day
12h 21m
New Moon, 0% of the Moon is Illuminated
Sep 16
New Moon
Sep 22
First Quarter
Sep 29
Full
Oct 8
Last Quarter
Oct 15
New

Hourly Weather History & Observations

Time (CDT) Temp. Heat Index Dew Point Humidity Pressure Visibility Wind Dir Wind Speed Gust Speed Precip Events Conditions
12:53 AM 69.1 °F - 62.1 °F 78% 30.10 in 10.0 mi NNE 3.5 mph - N/A   Mostly Cloudy
1:53 AM 69.1 °F - 62.1 °F 78% 30.09 in 10.0 mi NE 3.5 mph - N/A   Mostly Cloudy
2:53 AM 69.1 °F - 62.1 °F 78% 30.09 in 10.0 mi NNE 4.6 mph - N/A   Overcast
3:53 AM 68.0 °F - 62.1 °F 81% 30.09 in 10.0 mi NNE 4.6 mph - N/A   Overcast
4:53 AM 68.0 °F - 63.0 °F 84% 30.08 in 10.0 mi NNE 3.5 mph - N/A   Overcast
5:53 AM 68.0 °F - 62.1 °F 81% 30.09 in 10.0 mi Calm Calm - N/A   Mostly Cloudy
6:53 AM 68.0 °F - 62.1 °F 81% 30.10 in 10.0 mi NNE 3.5 mph - N/A   Overcast
7:53 AM 70.0 °F - 63.0 °F 78% 30.10 in 10.0 mi Calm Calm - N/A   Overcast
8:53 AM 70.0 °F - 63.0 °F 78% 30.12 in 10.0 mi North 8.1 mph - N/A   Overcast
9:53 AM 71.1 °F - 63.0 °F 75% 30.12 in 10.0 mi NNE 6.9 mph - N/A   Overcast
10:53 AM 73.0 °F - 63.0 °F 71% 30.11 in 10.0 mi NE 6.9 mph - N/A   Overcast
11:53 AM 73.9 °F - 63.0 °F 68% 30.10 in 10.0 mi ENE 6.9 mph - N/A   Overcast
12:53 PM 77.0 °F - 64.0 °F 64% 30.08 in 10.0 mi ENE 5.8 mph - N/A   Mostly Cloudy
1:53 PM 78.1 °F - 64.0 °F 62% 30.04 in 10.0 mi Variable 3.5 mph - N/A   Mostly Cloudy
2:53 PM 81.0 °F 82.5 °F 64.0 °F 56% 30.02 in 10.0 mi NNE 5.8 mph - N/A   Mostly Cloudy
3:53 PM 82.9 °F 84.0 °F 63.0 °F 51% 30.01 in 10.0 mi Calm Calm - N/A   Mostly Cloudy
4:53 PM 82.0 °F 83.4 °F 64.0 °F 54% 29.99 in 10.0 mi East 5.8 mph - N/A   Mostly Cloudy
5:53 PM 80.1 °F 81.7 °F 64.0 °F 58% 29.99 in 10.0 mi NE 3.5 mph - N/A   Mostly Cloudy
6:53 PM 77.0 °F - 64.0 °F 64% 30.00 in 10.0 mi NE 5.8 mph - N/A   Overcast
7:53 PM 75.0 °F - 64.9 °F 71% 30.00 in 10.0 mi ENE 6.9 mph - N/A   Mostly Cloudy
8:53 PM 73.9 °F - 64.9 °F 73% 30.01 in 10.0 mi ENE 8.1 mph - N/A   Overcast
9:53 PM 72.0 °F - 64.9 °F 78% 30.02 in 10.0 mi ENE 4.6 mph - N/A   Overcast
10:53 PM 72.0 °F - 64.9 °F 78% 30.02 in 10.0 mi Calm Calm - N/A   Overcast
11:53 PM 72.0 °F - 66.0 °F 81% 30.01 in 10.0 mi Calm Calm - N/A   Overcast